This demonstration page uses our WeatherBlox Daily Observations layout. Learn more.

Hourly Observations for August 27, 2016

Temp ( °F °C ) Dew Point ( °F °C ) Humidity (%) Winds ( mph kmh ) Pressure ( in mb ) Visibility ( mi km ) Precip ( " mm )
12:54 am 00:54 Cloudy 68 20 66 18.9 93 93 SE 5 7 30.02 1017 10 16.0934 0 0
1:54 am 01:54 Cloudy 68 20 66 18.9 93 93 S 6 9 30 1016 8 12.87472 0 0
2:44 am 02:44 Cloudy 68 20 66 19 94 94 SSE 8 13 29.94 1014 9 14.48406 0 0
2:54 am 02:54 Cloudy 67 19.4 66 18.9 97 97 SSE 6 9 29.96 1015 9 14.48406 0 0
3:54 am 03:54 Cloudy 67 19.4 66 18.9 97 97 S 3 6 29.98 1015 7 11.26538 0 0
4:54 am 04:54 Cloudy 68 20 66 18.9 93 93 ESE 3 6 29.97 1015 8 12.87472 0 0
5:54 am 05:54 Cloudy 68 20 66 18.9 93 93 NNW 5 7 29.98 1015 7 11.26538 0 0
6:54 am 06:54 Cloudy with Mist and Fog 68 20 67 19.4 96 96 SE 3 6 30 1016 4 6.43736 0 0
7:13 am 07:13 Cloudy with Mist and Fog 68 20 66 19 94 94 Calm 30 1016 3 4.82802 0 0
7:54 am 07:54 Cloudy with Mist and Fog 68 20 67 19.4 96 96 N 3 6 30 1016 4 6.43736 0 0
8:30 am 08:30 Mostly Cloudy with Mist and Fog 70 21 66 19 88 88 N 5 7 30 1016 5 8.0467 0 0
8:42 am 08:42 Partly Cloudy with Mist and Fog 72 22 66 19 83 83 N 5 7 30 1016 6 9.65604 0 0
8:54 am 08:54 Mostly Cloudy 71 21.7 67 19.4 87 87 NNW 6 9 30.02 1017 7 11.26538 0 0
9:31 am 09:31 Cloudy 71 21.7 66 18.9 84 84 NW 5 7 30 1016 9 14.48406 0 0
9:43 am 09:43 Cloudy 72 22.2 66 18.9 82 82 NW 7 11 30 1016 10 16.0934 0 0
9:48 am 09:48 Cloudy 72 22 66 19 83 83 NNW 6 9 30 1016 10 16.0934 0 0
9:54 am 09:54 Cloudy 73 22.8 66 18.9 79 79 NNW 3 6 30.02 1017 10 16.0934 0 0
10:04 am 10:04 Cloudy 73 23 64 18 74 74 NW 5 7 30 1016 10 16.0934 0 0
10:27 am 10:27 Partly Cloudy 74 23.3 65 18.3 74 74 Calm 30 1016 10 16.0934 0 0
10:47 am 10:47 Mostly Cloudy 74 23.3 65 18.3 74 74 Calm 30 1016 10 16.0934 0 0
10:54 am 10:54 Mostly Cloudy 75 23.9 65 18.3 71 71 S 3 6 30.01 1016 10 16.0934 0 0
11:19 am 11:19 Partly Cloudy 76 24.4 65 18.3 69 69 SSE 3 6 29.97 1015 10 16.0934 0 0
11:54 am 11:54 Mostly Sunny 78 25.6 65 18.3 64 64 W 3 6 30 1016 10 16.0934 0 0
12:54 pm 12:54 Sunny 81 27.2 64 17.8 57 57 WSW 7 11 29.99 1016 10 16.0934 0 0
1:54 pm 13:54 Sunny 83 28.3 64 17.8 53 53 W 7 11 29.99 1016 10 16.0934 0 0
2:54 pm 14:54 Sunny 84 28.9 64 17.8 51 51 S 9 15 29.98 1015 10 16.0934 0 0
3:54 pm 15:54 Sunny 85 29.4 63 17.2 48 48 Calm 29.96 1015 10 16.0934 0 0
4:54 pm 16:54 Sunny 85 29.4 64 17.8 50 50 SW 5 7 29.96 1014 10 16.0934 0 0
5:54 pm 17:54 Sunny 84 28.9 65 18.3 53 53 S 9 15 29.95 1014 10 16.0934 0 0
6:54 pm 18:54 Sunny 83 28.3 63 17.2 51 51 SSW 8 13 29.96 1014 10 16.0934 0 0
7:54 pm 19:54 Sunny 76 24.4 65 18.3 69 69 S 7 11 29.96 1015 10 16.0934 0 0
8:54 pm 20:54 Clear 76 24.4 64 17.8 67 67 SSE 3 6 29.98 1015 10 16.0934 0 0
9:54 pm 21:54 Clear 72 22.2 63 17.2 73 73 Calm 30.01 1016 10 16.0934 0 0
10:54 pm 22:54 Clear 72 22.2 64 17.8 76 76 Calm 30.03 1017 10 16.0934 0 0
11:54 pm 23:54 Clear 69 20.6 64 17.8 84 84 Calm 30.04 1017 10 16.0934 0 0

Powered by AerisWeather